TimeMDT,TemperatureF,Dew PointF,Humidity,Sea Level PressureIn,VisibilityMPH,Wind Direction,Wind SpeedMPH,Gust SpeedMPH,PrecipitationIn,Events,Conditions,WindDirDegrees,DateUTC
12:12 AM,19.4,17.6,93,30.04,3.0,NNE,5.8,-,0.00,Snow,Light Snow,30,2013-04-10 06:12:00
12:24 AM,19.4,19.4,100,30.04,2.5,North,8.1,-,0.00,Snow,Light Snow,350,2013-04-10 06:24:00
12:42 AM,19.4,17.6,93,30.05,3.0,North,5.8,-,0.00,Snow,Light Snow,360,2013-04-10 06:42:00
12:49 AM,19.4,17.6,93,30.05,3.0,North,6.9,-,0.00,Snow,Light Snow,350,2013-04-10 06:49:00
12:53 AM,19.9,18.0,92,30.10,3.0,NNW,5.8,-,0.00,Snow,Light Snow,340,2013-04-10 06:53:00
1:00 AM,19.4,17.6,93,30.06,3.0,NW,6.9,-,0.00,Snow,Light Snow,320,2013-04-10 07:00:00
1:10 AM,19.4,17.6,93,30.06,4.0,NW,4.6,-,0.00,Snow,Light Snow,320,2013-04-10 07:10:00
1:40 AM,19.4,17.6,93,30.06,2.5,Calm,Calm,-,0.00,Snow,Light Snow,0,2013-04-10 07:40:00
1:53 AM,19.9,17.1,89,30.11,2.0,Calm,Calm,-,0.00,Snow,Light Snow,0,2013-04-10 07:53:00
1:59 AM,19.4,17.6,93,30.06,1.5,North,3.5,-,0.00,Snow,Light Snow,350,2013-04-10 07:59:00
2:15 AM,19.4,17.6,93,30.06,1.2,NNW,6.9,-,0.00,Snow,Light Snow,340,2013-04-10 08:15:00
2:23 AM,19.4,17.6,93,30.06,1.8,North,5.8,-,0.00,Snow,Light Snow,350,2013-04-10 08:23:00
2:31 AM,19.4,15.8,86,30.07,3.0,NNW,8.1,-,0.00,Snow,Light Snow,340,2013-04-10 08:31:00
2:53 AM,19.9,12.9,74,30.13,8.0,NW,9.2,-,0.00,Snow,Light Snow,320,2013-04-10 08:53:00
3:04 AM,19.4,12.2,74,30.07,9.0,NNW,5.8,-,0.00,,Overcast,330,2013-04-10 09:04:00
3:53 AM,19.9,12.0,71,30.14,8.0,NNW,3.5,-,0.00,Snow,Light Snow,340,2013-04-10 09:53:00
4:53 AM,19.0,12.9,77,30.15,4.0,East,3.5,-,0.00,Snow,Light Snow,90,2013-04-10 10:53:00
5:09 AM,19.4,12.2,74,30.09,4.0,East,3.5,-,0.00,Snow,Light Snow,90,2013-04-10 11:09:00
5:53 AM,18.0,12.9,81,30.16,5.0,SE,3.5,-,0.00,Snow,Light Snow,130,2013-04-10 11:53:00
6:53 AM,18.0,14.0,84,30.18,10.0,Calm,Calm,-,0.00,,Overcast,0,2013-04-10 12:53:00
7:53 AM,19.0,12.0,74,30.20,10.0,North,3.5,-,N/A,,Overcast,10,2013-04-10 13:53:00
8:30 AM,19.4,15.8,86,30.14,2.5,NNW,8.1,-,0.00,Snow,Light Snow,330,2013-04-10 14:30:00
8:49 AM,19.4,14.0,80,30.14,5.0,WNW,3.5,-,0.00,Snow,Light Snow,300,2013-04-10 14:49:00
8:53 AM,19.0,14.0,81,30.23,6.0,Calm,Calm,-,0.00,Snow,Light Snow,0,2013-04-10 14:53:00
9:10 AM,19.4,12.2,74,30.14,10.0,Variable,3.5,-,0.00,,Overcast,0,2013-04-10 15:10:00
9:53 AM,19.9,12.0,71,30.22,10.0,East,5.8,-,0.00,,Partly Cloudy,90,2013-04-10 15:53:00
10:29 AM,21.2,12.2,68,30.15,10.0,ENE,4.6,-,N/A,,Mostly Cloudy,70,2013-04-10 16:29:00
11:32 AM,23.0,15.8,74,30.15,10.0,East,5.8,-,N/A,,Scattered Clouds,90,2013-04-10 17:32:00
11:53 AM,24.1,17.1,75,30.23,10.0,Calm,Calm,-,N/A,,Clear,0,2013-04-10 17:53:00
12:53 PM,28.0,19.9,72,30.19,10.0,Variable,4.6,-,N/A,,Partly Cloudy,0,2013-04-10 18:53:00
1:26 PM,28.4,21.2,74,30.10,9.0,ENE,5.8,-,N/A,,Partly Cloudy,60,2013-04-10 19:26:00
1:53 PM,28.9,21.9,75,30.14,10.0,Variable,6.9,-,N/A,,Clear,0,2013-04-10 19:53:00
2:00 PM,30.2,24.8,80,30.09,8.0,ESE,9.2,-,N/A,,Partly Cloudy,110,2013-04-10 20:00:00
2:53 PM,33.1,24.1,70,30.12,10.0,ENE,4.6,-,N/A,,Clear,70,2013-04-10 20:53:00
3:53 PM,34.0,24.1,67,30.09,10.0,NE,5.8,-,N/A,,Clear,50,2013-04-10 21:53:00
4:53 PM,37.0,24.1,59,30.06,10.0,Variable,4.6,-,N/A,,Clear,0,2013-04-10 22:53:00
5:53 PM,37.9,23.0,55,30.06,10.0,South,3.5,-,N/A,,Clear,170,2013-04-10 23:53:00
6:53 PM,37.9,23.0,55,30.06,10.0,SE,3.5,-,N/A,,Clear,140,2013-04-11 00:53:00
7:53 PM,37.0,24.1,59,30.06,10.0,ESE,6.9,-,N/A,,Clear,110,2013-04-11 01:53:00
8:53 PM,35.1,25.0,67,30.08,10.0,SE,6.9,-,N/A,,Clear,130,2013-04-11 02:53:00
9:53 PM,33.1,26.1,75,30.09,10.0,SE,6.9,-,N/A,,Clear,140,2013-04-11 03:53:00
10:53 PM,32.0,25.0,75,30.09,10.0,SE,6.9,-,N/A,,Partly Cloudy,140,2013-04-11 04:53:00
11:53 PM,32.0,25.0,75,30.07,10.0,SE,6.9,-,N/A,,Mostly Cloudy,130,2013-04-11 05:53:00